User: anonymous   Login
Location: Unspecified
(0.0000°N, 0.0000°E)
Time: 05:13:21
(UTC+00:00)
Language:

OBJECT G - Orbit

View from above orbital plane
View from above orbital plane
View from above satellite
View from above satellite

Ground track
Ground track

The orbit data is extracted from the following two-line orbital elements,

1 43677U 18084G   18350.56633363 -.00000284  00000-0 -23491-4 0  9999
2 43677  97.8379 100.7034 0016561 165.2521 194.9175 14.90106641  7193
Epoch (UTC): 16 December 2018 13:35:31
Eccentricity: 0.0016561
inclination: 97.8379°
perigee height: 586 km
apogee height: 609 km
right ascension of ascending node: 100.7034°
argument of perigee: 165.2521°
revolutions per day: 14.90106641
mean anomaly at epoch: 194.9175°
orbit number at epoch: 719

The dashed part of the orbit path shows where the satellite is in the earth's shadow,  

DLR